Tracking 31027 objects as of 19-Jul-2025
HD Live streaming from Space Station
objects crossing your sky now

THOR AGENA B DEB

Track THOR AGENA B DEB now!
10-day predictions


NORAD ID: 2092
Int'l Code: 1965-098H
Perigee: 509.9 km
Apogee: 2,566.2 km
Inclination: 79.9 °
Period: 116.7 minutes
Semi major axis: 7909 km
RCS: 0.1037 m2 (medium)
Launch date: November 29, 1965
Source: United States (US)
Launch site: AIR FORCE WESTERN TEST RANGE (AFWTR)

Note: This is SATELLITE DEBRIS
Your satellite tracking list
FENGYUN 1C DEB
Track 1 satellite(s)




NASA's NSSDC Master Catalog

Two Line Element Set (TLE):
1 02092U 65098H   25199.27975625  .00000792  00000-0  25291-3 0  9990
2 02092  79.8636 286.0823 1299963  72.1972 301.6403 12.34290505639219
Source of the keplerian elements: AFSPC